Location: �couen
(49.0206°N, 2.3831°E)
Time: 23:51:46
(UTC+00:00)

Cosmos 1656 - Pass Details

Date: 16 October 2021
Orbit: 799 x 848 km, 71.1° (Epoch: 06 December)

Event Time Altitude Azimuth Distance (km) Brightness Sun altitude
Rises 17:24:27 0° 204° (SSW) 3,342 7.3 -5.0°
Reaches altitude 10° 17:26:53 10° 204° (SSW) 2,406 6.5 -5.4°
Maximum altitude 17:32:23 85° 116° (ESE) 820 3.6 -6.3°
Drops below altitude 10° 17:37:52 10° 29° (NNE) 2,394 5.7 -7.2°
Sets 17:40:17 0° 29° (NNE) 3,324 6.5 -7.6°
